User: anonymous   Login
Location: Unspecified
(0.0000°N, 0.0000°E)
Time: 21:39:34
(UTC+00:00)
Language:

Vela 4A - Orbit

View from above orbital plane
View from above orbital plane
View from above satellite
View from above satellite

Ground track
Ground track

The orbit data is extracted from the following two-line orbital elements,

1 02765U 67040A   16214.21750449 -.00001042  00000-0  00000+0 0  9990
2 02765   6.1868  18.1807 4754373 179.7246 359.2764  0.21558462 38645
Epoch (UTC): 01 August 2016 05:13:12
Eccentricity: 0.4754373
inclination: 6.1868°
perigee height: 55250 km
apogee height: 166965 km
right ascension of ascending node: 18.1807°
argument of perigee: 179.7246°
revolutions per day: 0.21558462
mean anomaly at epoch: 359.2764°
orbit number at epoch: 3864

The dashed part of the orbit path shows where the satellite is in the earth's shadow,  

DLR